Abu Dhabi International Airport

Airport
ICAO code: 
OMAA
IATA Code: 
AUH
Summary
ICAO Region: 
MID
Location: 
Abu Dhabi, Abu Dhabi
Serving: 
Abu Dhabi
Elevation: 
88 ft
Coordinates: 
Aerial View: 
24° 25' 59.016" N, 54° 39' 3.996" E
Airport LOS: 
Parallel Runway Operation
Airport WX: 
Fog
Metar
Observation
OMAA 262300Z 00000KT 5000 HZ NSC 18/16 Q1015 BECMG 3000 BR
Station
Abu Dhabi International Airport
Date/Time
2022-01-26 23:00:00
Wind direction
Wind speed
00 kts
Lowest cloud amount
nil significant cloud
Temperature
18°C
Dew point
16°C
Humidity
88%
QNH
1015 hPa
Weather condition
n/a

International airport to the east of the city of Abu Dhabi.

Climatology

Hot Desert Climate (Köppen climate classification BWh)

Runways

Designator Length Width Surface Rops
13/31 4100 45 ASP Yes/Yes
Airport map: 
Aerial View: 

SKYbrary Partners:

Safety knowledge contributed by: